This is the latest recevied weather packets stored in our database for station/object SQ9NFI-4. If no packets are shown the sender has not sent any weather packets the latest 1 day(s).
| Time | Temp. | Humidity | Pressure | Rain* | Wind** | Luminosity | Snow |
|---|---|---|---|---|---|---|---|
| 1777973977 | 27.22° C | 24% | 1010.5 hPa | 0 mm | 7.6 m/s, 170° | 702 W/m² | - |
| 1777973677 | 26.67° C | 23% | 1010.8 hPa | 0 mm | 2.24 m/s, 150° | 714 W/m² | - |
| 1777973377 | 26.67° C | 24% | 1010.8 hPa | 0 mm | 7.15 m/s, 172° | 722 W/m² | - |
| 1777973077 | 26.67° C | 26% | 1010.8 hPa | 0 mm | 4.47 m/s, 196° | 663 W/m² | - |
| 1777972839 | 25.56° C | 24% | 1010.8 hPa | 0 mm | 6.71 m/s, 188° | 482 W/m² | - |
| 1777972539 | 26.11° C | 25% | 1010.8 hPa | 0 mm | 2.68 m/s, 223° | 648 W/m² | - |
| 1777972239 | 25.56° C | 26% | 1010.8 hPa | 0 mm | 8.49 m/s, 207° | 629 W/m² | - |
| 1777971939 | 25.56° C | 26% | 1010.8 hPa | 0 mm | 8.49 m/s, 176° | 603 W/m² | - |
| 1777971639 | 25.56° C | 26% | 1011.2 hPa | 0 mm | 2.68 m/s, 167° | 589 W/m² | - |
| 1777971339 | 25° C | 26% | 1011.2 hPa | 0 mm | 5.81 m/s, 199° | 519 W/m² | - |
| 1777971039 | 25° C | 25% | 1011.2 hPa | 0 mm | 8.49 m/s, 203° | 444 W/m² | - |
| 1777970739 | 25.56° C | 25% | 1011.2 hPa | 0 mm | 7.6 m/s, 105° | 574 W/m² | - |
| 1777970439 | 25.56° C | 26% | 1011.2 hPa | 0 mm | 2.68 m/s, 165° | 629 W/m² | - |
| 1777970139 | 25° C | 27% | 1011.2 hPa | 0 mm | 6.26 m/s, 245° | 611 W/m² | - |
| 1777969839 | 25.56° C | 27% | 1011.2 hPa | 0 mm | 4.47 m/s, 189° | 574 W/m² | - |
| 1777969539 | 24.44° C | 27% | 1011.2 hPa | 0 mm | 5.81 m/s, 260° | 577 W/m² | - |
| 1777969239 | 24.44° C | 28% | 1011.2 hPa | 0 mm | 4.02 m/s, 171° | 378 W/m² | - |
| 1777968939 | 24.44° C | 27% | 1011.2 hPa | 0 mm | 7.6 m/s, 172° | 398 W/m² | - |
| 1777968639 | 25.56° C | 27% | 1011.2 hPa | 0 mm | 3.13 m/s, 91° | 381 W/m² | - |
| 1777968339 | 25.56° C | 26% | 1011.2 hPa | 0 mm | 4.47 m/s, 137° | 536 W/m² | - |
| 1777968039 | 25° C | 26% | 1011.5 hPa | 0 mm | 4.92 m/s, 199° | 523 W/m² | - |
| 1777967739 | 24.44° C | 28% | 1011.5 hPa | 0 mm | 4.47 m/s, 180° | 525 W/m² | - |
| 1777967439 | 25° C | 28% | 1011.5 hPa | 0 mm | 4.47 m/s, 167° | 502 W/m² | - |
| 1777967139 | 25° C | 28% | 1011.5 hPa | 0 mm | 4.47 m/s, 196° | 502 W/m² | - |
| 1777966842 | 24.44° C | 27% | 1011.5 hPa | 0 mm | 4.02 m/s, 159° | 502 W/m² | - |
* Rain latest hour (hover to see other rain measurements)
** Current wind speed in m/s (hover to see current wind gust speed)